Weather Roundup
Issued by NWS Chicago, IL

Home | Current Version | Previous Version | Graphics & Text | Print | Product List | Glossary On
Versions: 1 2 3 4 5 6 7 8 9 10 11 12 13 14 15 16 17 18 19 20 21 22 23 24 25 26 27 28 29 30 31 32 33 34 35 36 37 38 39 40 41 42 43 44 45 46 47 48 49 50
000
NZUS59 KLOT 290503
HRRLOT

CHICAGO AREA WEATHER ROUNDUP
NATIONAL WEATHER SERVICE CHICAGO/ROMEOVILLE IL
1200 AM CDT THU SEP 29 2016

NOTE: "FAIR" INDICATES FEW OR NO CLOUDS BELOW 12,000 FEET WITH NO
SIGNIFICANT WEATHER AND/OR OBSTRUCTIONS TO VISIBILITY.

* THESE STATIONS ARE NOT UNDER NWS QUALITY CONTROL. THEY ALSO MAY NOT
  REPORT WEATHER SUCH AS PRECIPITATION OR FOG.

ILZ005-006-012>014-019>023-290600-
NORTHEAST ILLINOIS

CITY           SKY/WX    TMP DP  RH WIND       PRES   REMARKS
OHARE          CLOUDY    59  55  87 N17       30.07S
MIDWAY         CLOUDY    60  55  83 N10       30.06S
AURORA         CLOUDY    59  51  75 N15       30.10S
LANSING*       CLOUDY    61  57  88 NE14      30.04S
JOLIET*        CLOUDY    58  56  91 N9        30.08S
WAUKEGAN       CLOUDY    60  55  83 N12G20    30.10R
DUPAGE AIRPORT CLOUDY    58  51  78 N16       30.09R
WHEELING       CLOUDY    60  55  83 N14G21    30.10S
KANKAKEE*      CLOUDY    56  54  94 NW8       30.05F
MORRIS*        CLOUDY    55  53  91 CALM      30.08S
LEWIS AIRPORT* CLOUDY    57  57 100 N7        30.07S
NORTHERLY ISL    N/A     62  54  74 N16         N/A
$$

WIZ051-052-058>065-066-070>072-290600-
SOUTHEAST WISCONSIN

CITY           SKY/WX    TMP DP  RH WIND       PRES   REMARKS
MILWAUKEE      PTCLDY    60  55  83 N20G32    30.14F
KENOSHA*       CLOUDY    60  55  83 N15G23    30.12S
RACINE*        MOCLDY    57  53  86 N16G28    30.14S
WAUKESHA       PTCLDY    54  50  87 N8        30.18S
WEST BEND      CLEAR     55  52  88 N9        30.19S
$$

INZ001>003-010>013-019-020-290600-
NORTHWEST INDIANA

CITY           SKY/WX    TMP DP  RH WIND       PRES   REMARKS
GARY*          LGT RAIN  64  57  78 NE17G29   30.05R
MICHIGAN CITY* NOT AVBL
RENSSELAER*    NOT AVBL
VALPARAISO     LGT RAIN  57  53  86 NE9G18    30.03S
$$

LMZ740>746-290600-
SOUTHERN LAKE MICHIGAN

STATION/POSITION TIME  SKY/WX   TEMP WIND        PRES    VSBY
                                AIR  DIR/SP/G
                 (UTC)          (F)  (DEG/KT/KT) (MB)    (MI)
HARRISON CRIB    0440            65   30/ 26/ 29   N/A
BURNHAM HARBOR   0500            62   30/ 13/ 20   N/A
CALUMET HARBOR   0430            63   20/ 17/ 22 1017.2R
BURNS HARBOR     0440            62   50/ 24/ 28 1016.9F
MICHIGAN CITY    0440            60   20/ 22/ 24   N/A
$$

ABBREVIATIONS USED IN REMARKS
   TC - TEMPERATURE IN CELSIUS
  WCI - WIND CHILL INDEX
   HX - HEAT INDEX
  VSB - VISIBILITY
$$




USA.gov is the U.S. government's official web portal to all federal, state and local government web resources and services.